RYR6064 LOWW-EPWA

Flight info

Callsign RYR6064
Flight time N/A
Altitude 35000
Route LOWW/29 LEDVA DCT NETIR DCT LIGDI DCT KURON T709 KOTEK M866 LOGDA
Aircraft A320/M-SDE3FGHIRWY/LB1

Departure

Time N/A
Airport Vienna International Airport (LOWW)

Arrival

Time 2026-04-30 18:22
Airport Warsaw Chopin Airport (EPWA)
Time Latitude Longitude Altitude Speed Heading
2026-04-30 17:39 49.19933 17.70692 35404 ft 395 kts 50°
2026-04-30 17:42 49.36516 18.03826 35407 ft 391 kts 50°
2026-04-30 17:43 49.44746 18.20421 35404 ft 391 kts 50°
2026-04-30 17:44 49.54582 18.40380 35401 ft 390 kts 51°
2026-04-30 17:47 49.69228 18.70294 35390 ft 388 kts 47°
2026-04-30 17:48 49.83188 18.89738 35427 ft 386 kts 41°
2026-04-30 17:50 49.99210 19.11973 35382 ft 387 kts 41°
2026-04-30 17:52 50.11168 19.28668 35390 ft 385 kts 41°
2026-04-30 17:54 50.29006 19.53820 35394 ft 382 kts 41°
2026-04-30 17:56 50.43154 19.78682 35391 ft 381 kts 47°
2026-04-30 17:58 50.53627 19.97518 35369 ft 384 kts 47°
2026-04-30 18:00 50.66249 20.24493 34718 ft 392 kts 43°
2026-04-30 18:00 50.73154 20.30802 32126 ft 378 kts 26°
2026-04-30 18:01 50.77855 20.34066 31088 ft 362 kts 27°
2026-04-30 18:02 50.84591 20.38753 29384 ft 343 kts 27°
2026-04-30 18:02 50.90974 20.43176 27860 ft 325 kts 27°
2026-04-30 18:03 50.97067 20.47407 26440 ft 312 kts 27°
2026-04-30 18:04 51.02940 20.51501 25134 ft 302 kts 26°
2026-04-30 18:05 51.10670 20.56589 22612 ft 311 kts 22°
2026-04-30 18:06 51.18837 20.61194 20446 ft 309 kts 21°
2026-04-30 18:07 51.26889 20.65868 18678 ft 307 kts 21°
2026-04-30 18:08 51.32872 20.69360 17217 ft 303 kts 21°
2026-04-30 18:09 51.40750 20.73975 15362 ft 299 kts 21°
2026-04-30 18:10 51.48514 20.78537 13536 ft 295 kts 20°
2026-04-30 18:11 51.56155 20.83042 11691 ft 289 kts 20°
2026-04-30 18:11 51.61700 20.86317 10569 ft 280 kts 20°
2026-04-30 18:12 51.67096 20.89522 9383 ft 271 kts 20°
2026-04-30 18:13 51.70598 20.91602 8628 ft 264 kts 20°
2026-04-30 18:13 51.75076 20.94264 7998 ft 253 kts 20°
2026-04-30 18:14 51.78908 20.96548 7408 ft 252 kts 20°
2026-04-30 18:15 51.83813 20.99476 6656 ft 249 kts 19°
2026-04-30 18:15 51.88635 21.02367 5866 ft 238 kts 19°
2026-04-30 18:16 51.91654 21.04186 5346 ft 225 kts 19°
2026-04-30 18:16 51.94522 21.05913 4826 ft 215 kts 19°
2026-04-30 18:17 51.95911 21.06750 4562 ft 211 kts 18°
2026-04-30 18:17 51.97278 21.07572 4305 ft 209 kts 18°
2026-04-30 18:17 51.99972 21.09179 3788 ft 204 kts 15°
2026-04-30 18:18 52.01365 21.09428 3523 ft 200 kts 353°
2026-04-30 18:18 52.02687 21.08803 3270 ft 199 kts 333°
2026-04-30 18:18 52.03876 21.07767 3029 ft 187 kts 333°
2026-04-30 18:18 52.04989 21.06802 2782 ft 178 kts 333°
2026-04-30 18:19 52.06070 21.05865 2527 ft 175 kts 333°
2026-04-30 18:19 52.07131 21.04943 2283 ft 171 kts 333°
2026-04-30 18:19 52.08165 21.04044 2057 ft 166 kts 333°
2026-04-30 18:19 52.09167 21.03173 1825 ft 165 kts 333°
2026-04-30 18:20 52.10160 21.02308 1599 ft 153 kts 333°
2026-04-30 18:20 52.11051 21.01532 1403 ft 143 kts 333°
2026-04-30 18:20 52.11911 21.00782 1207 ft 139 kts 333°
2026-04-30 18:20 52.12766 21.00038 1016 ft 139 kts 333°
2026-04-30 18:21 52.13615 20.99297 824 ft 138 kts 333°
2026-04-30 18:21 52.14462 20.98558 639 ft 138 kts 333°
2026-04-30 18:21 52.15309 20.97810 430 ft 138 kts 333°
2026-04-30 18:21 52.16128 20.97102 357 ft 120 kts 330°
2026-04-30 18:22 52.16709 20.96595 356 ft 70 kts 332°
2026-04-30 18:22 52.17258 20.96240 352 ft 26 kts 360°
2026-04-30 18:22 52.17392 20.96281 358 ft 13 kts 53°
2026-04-30 18:23 52.17431 20.96362 355 ft 8 kts 38°
2026-04-30 18:23 52.17465 20.96430 354 ft 7 kts 61°
2026-04-30 18:23 52.17488 20.96503 359 ft 8 kts 60°
2026-04-30 18:23 52.17532 20.96584 352 ft 10 kts 50°
2026-04-30 18:24 52.17601 20.96764 355 ft 8 kts 41°
2026-04-30 18:24 52.17636 20.96738 354 ft 5 kts 279°
2026-04-30 18:24 52.17620 20.96697 359 ft 3 kts 236°
2026-04-30 18:25 52.17612 20.96679 358 ft 0 kts 236°